User: anonymous   Login
Location: Killam
(52.7910°N, 111.8608°W)
Time: 10:52:00
(UTC+00:00)
Language:

CAS-6 - Orbit

View from above orbital plane
View from above orbital plane
View from above satellite
View from above satellite

Ground track
Ground track

The orbit is defined by the following mean orbital elements,

1 44881U          26073.93666161 +.00000000 +00000-0 +60042-4 0 00000
2 44881  97.7603 148.4501 0014560  41.8589 318.3738 14.86351266    08
Epoch (UTC): 14 March 2026 22:28:47
Eccentricity: 0.0014560
inclination: 97.7603°
perigee height: 599 km
apogee height: 620 km
right ascension of ascending node: 148.4501°
argument of perigee: 41.8589°
revolutions per day: 14.86351266
mean anomaly at epoch: 318.3738°

The dashed part of the orbit path shows where the satellite is in the earth's shadow,  

DLR